Total_Precipitation_Accumulation
0.82 1.03 1.08 1.21 1.02 1.01 0.94 0.81 0.67 0.61 0.52 0.45 0.43 0.48 0.55 0.57 0.63 0.72 0.73 0.70 0.74 0.90 1.18 1.27 1.14 1.08 1.04 0.97 0.91 0.86 0.81 0.79 0.71 0.60 0.49 0.40 0.37 0.36 0.38 0.40 0.41 0.39 0.39
1.13 1.43 1.48 1.46 1.32 1.34 1.37 1.37 1.23 1.03 0.85 0.80 0.75 0.76 0.79 0.86 0.94 0.97 0.97 0.88 0.81 0.90 1.14 1.31 1.34 1.37 1.29 1.14 1.02 0.95 0.94 0.91 0.85 0.72 0.63 0.56 0.52 0.49 0.48 0.46 0.45 0.42 0.38
1.49 1.57 1.83 1.82 1.69 1.66 1.58 1.50 1.62 1.60 1.35 1.16 1.05 1.00 1.10 1.13 1.13 1.17 1.27 1.30 1.11 1.01 1.07 1.19 1.29 1.33 1.33 1.28 1.22 1.14 1.12 0.99 0.89 0.78 0.72 0.69 0.65 0.65 0.61 0.56 0.53 0.50 0.46
1.88 1.88 1.92 1.96 1.89 1.86 2.03 2.07 1.99 1.96 1.89 1.67 1.49 1.39 1.37 1.43 1.32 1.32 1.30 1.41 1.49 1.24 1.04 1.01 1.05 1.12 1.26 1.41 1.48 1.49 1.37 1.20 1.08 0.95 0.87 0.81 0.77 0.70 0.65 0.62 0.60 0.60 0.56
2.33 2.41 2.45 2.50 2.38 2.39 2.36 2.26 2.33 2.28 2.20 1.99 1.66 1.53 1.42 1.44 1.37 1.22 1.21 1.33 1.39 1.28 1.15 1.00 0.98 1.07 1.24 1.43 1.55 1.60 1.51 1.31 1.18 1.09 1.04 0.96 0.86 0.77 0.69 0.65 0.65 0.68 0.69
3.04 3.06 3.00 3.02 2.94 2.78 2.65 2.60 2.52 2.31 2.19 1.96 1.65 1.46 1.32 1.20 1.17 1.18 1.07 1.04 1.06 0.99 1.01 1.00 0.96 0.95 1.08 1.24 1.37 1.47 1.42 1.34 1.27 1.20 1.07 0.99 0.92 0.84 0.76 0.70 0.71 0.76 0.77
3.57 3.40 3.28 3.29 3.13 2.93 2.76 2.64 2.51 2.41 2.12 1.89 1.82 1.58 1.26 1.08 1.01 0.95 0.94 0.90 0.85 0.83 0.90 0.90 0.87 0.84 0.89 1.06 1.10 1.18 1.24 1.26 1.24 1.21 1.13 1.10 1.01 0.91 0.85 0.81 0.80 0.84 0.82
4.00 3.77 3.70 3.54 3.29 3.09 2.85 2.61 2.44 2.39 2.18 2.01 1.97 1.89 1.52 1.19 0.91 0.73 0.73 0.73 0.69 0.67 0.67 0.65 0.65 0.68 0.72 0.79 0.89 1.04 1.09 1.16 1.21 1.26 1.24 1.15 1.07 0.99 0.94 0.92 0.91 0.91 0.91
4.42 4.16 4.02 3.75 3.47 3.14 2.86 2.61 2.40 2.30 2.21 2.08 1.93 1.97 1.75 1.40 1.04 0.78 0.62 0.58 0.58 0.61 0.61 0.58 0.58 0.58 0.63 0.71 0.85 0.92 0.93 0.95 1.00 1.05 1.08 1.12 1.11 1.06 1.03 1.04 1.06 1.08 1.12
3.80 3.68 3.54 3.36 3.12 2.80 2.57 2.37 2.17 2.06 2.09 1.98 1.84 1.67 1.57 1.35 1.17 0.96 0.72 0.59 0.57 0.62 0.64 0.63 0.61 0.61 0.65 0.69 0.81 0.89 0.85 0.81 0.81 0.81 0.83 0.85 0.86 0.85 0.86 0.88 0.90 0.96 1.05
3.17 2.94 2.79 2.67 2.51 2.32 2.14 2.02 1.94 1.83 1.76 1.67 1.55 1.47 1.41 1.27 1.07 0.93 0.83 0.71 0.70 0.70 0.70 0.70 0.70 0.72 0.74 0.74 0.72 0.78 0.78 0.70 0.68 0.68 0.67 0.66 0.66 0.67 0.71 0.73 0.75 0.81 0.88
2.53 2.17 1.98 1.85 1.75 1.65 1.62 1.60 1.56 1.51 1.46 1.41 1.34 1.25 1.20 1.18 1.10 1.02 0.91 0.82 0.85 0.84 0.78 0.73 0.70 0.71 0.71 0.71 0.73 0.80 0.66 0.62 0.61 0.60 0.64 0.67 0.65 0.63 0.65 0.69 0.72 0.77 0.80
2.05 1.70 1.50 1.40 1.36 1.32 1.25 1.26 1.26 1.22 1.20 1.20 1.19 1.13 1.11 1.09 1.07 1.07 1.12 1.08 0.94 0.82 0.75 0.73 0.68 0.64 0.62 0.64 0.71 0.78 0.63 0.60 0.62 0.65 0.65 0.63 0.62 0.60 0.59 0.58 0.60 0.62 0.65
1.60 1.39 1.25 1.16 1.03 0.91 0.88 0.91 0.95 0.97 0.97 1.04 1.08 1.09 1.12 1.11 1.08 1.03 1.04 1.10 1.16 1.09 0.92 0.83 0.78 0.72 0.67 0.66 0.75 0.73 0.61 0.68 0.64 0.65 0.62 0.56 0.52 0.49 0.48 0.47 0.47 0.47 0.48
1.13 0.99 0.88 0.80 0.75 0.68 0.65 0.68 0.72 0.75 0.79 0.85 0.91 0.98 1.08 1.15 1.17 1.12 1.09 1.09 1.16 1.24 1.18 1.01 0.93 0.86 0.76 0.72 0.81 0.66 0.66 0.78 0.69 0.61 0.55 0.49 0.43 0.38 0.35 0.33 0.32 0.32 0.33
0.86 0.74 0.62 0.55 0.55 0.56 0.56 0.52 0.54 0.57 0.60 0.65 0.72 0.80 0.90 1.00 1.12 1.17 1.22 1.20 1.15 1.15 1.17 1.04 0.95 0.91 0.81 0.73 0.82 0.71 0.70 0.71 0.59 0.48 0.40 0.36 0.34 0.32 0.29 0.27 0.27 0.27 0.26
0.79 0.69 0.61 0.58 0.55 0.50 0.48 0.48 0.47 0.49 0.55 0.57 0.55 0.61 0.69 0.75 0.85 0.94 0.99 1.01 1.02 1.01 1.06 1.02 0.94 0.89 0.85 0.79 0.76 0.67 0.62 0.60 0.53 0.44 0.34 0.32 0.30 0.27 0.25 0.25 0.25 0.24 0.23
0.60 0.56 0.50 0.50 0.50 0.47 0.45 0.43 0.41 0.40 0.39 0.40 0.41 0.45 0.52 0.54 0.61 0.65 0.70 0.75 0.79 0.82 0.86 0.95 0.96 0.87 0.81 0.75 0.69 0.60 0.46 0.41 0.43 0.40 0.34 0.31 0.30 0.28 0.27 0.25 0.23 0.20 0.17
0.50 0.50 0.46 0.43 0.43 0.42 0.39 0.37 0.36 0.31 0.27 0.28 0.29 0.32 0.38 0.40 0.43 0.45 0.49 0.51 0.56 0.65 0.77 0.87 0.90 0.83 0.75 0.65 0.60 0.49 0.41 0.45 0.34 0.30 0.27 0.26 0.27 0.25 0.22 0.17 0.14 0.13 0.10
0.46 0.47 0.43 0.39 0.33 0.30 0.28 0.30 0.32 0.27 0.24 0.23 0.25 0.26 0.29 0.31 0.32 0.34 0.36 0.39 0.45 0.56 0.66 0.73 0.71 0.66 0.62 0.54 0.55 0.51 0.44 0.41 0.35 0.25 0.22 0.19 0.17 0.15 0.12 0.11 0.10 0.09 0.08
0.40 0.38 0.35 0.33 0.28 0.25 0.25 0.26 0.27 0.26 0.25 0.23 0.21 0.20 0.23 0.27 0.30 0.30 0.30 0.35 0.42 0.51 0.55 0.57 0.56 0.50 0.46 0.49 0.52 0.47 0.43 0.38 0.31 0.24 0.25 0.20 0.18 0.20 0.20 0.15 0.10 0.07 0.05
0.34 0.33 0.29 0.28 0.27 0.24 0.26 0.25 0.23 0.26 0.28 0.27 0.23 0.20 0.20 0.20 0.22 0.24 0.26 0.32 0.38 0.41 0.43 0.45 0.45 0.44 0.41 0.44 0.49 0.46 0.45 0.47 0.42 0.30 0.31 0.24 0.19 0.26 0.28 0.24 0.16 0.09 0.06
0.34 0.31 0.27 0.26 0.29 0.27 0.26 0.23 0.22 0.26 0.29 0.29 0.27 0.25 0.19 0.16 0.20 0.24 0.24 0.24 0.28 0.29 0.35 0.42 0.45 0.44 0.43 0.47 0.55 0.54 0.52 0.52 0.48 0.37 0.40 0.38 0.28 0.31 0.23 0.16 0.14 0.12 0.09
0.35 0.32 0.29 0.27 0.29 0.28 0.26 0.24 0.22 0.22 0.27 0.27 0.25 0.25 0.26 0.24 0.20 0.21 0.18 0.19 0.24 0.30 0.33 0.35 0.43 0.42 0.37 0.40 0.49 0.53 0.51 0.50 0.49 0.46 0.49 0.50 0.36 0.31 0.21 0.29 0.25 0.17 0.12
0.34 0.30 0.29 0.28 0.30 0.29 0.26 0.23 0.20 0.19 0.22 0.19 0.18 0.21 0.21 0.21 0.21 0.23 0.20 0.23 0.27 0.31 0.28 0.32 0.36 0.38 0.42 0.46 0.47 0.49 0.56 0.63 0.62 0.55 0.55 0.57 0.49 0.39 0.31 0.37 0.34 0.23 0.21
0.33 0.26 0.27 0.29 0.30 0.30 0.24 0.19 0.17 0.14 0.16 0.15 0.16 0.18 0.19 0.16 0.15 0.15 0.15 0.22 0.31 0.29 0.29 0.34 0.49 0.66 0.71 0.69 0.58 0.56 0.65 0.70 0.71 0.75 0.66 0.64 0.60 0.49 0.46 0.39 0.39 0.40 0.44